Flag for U.S.A. Weather past 2 weeks in Lakeland, Florida, U.S.A.

73 °F

Broken clouds.

Feels Like: 72 °F
Forecast: 65 / 76 °F
Wind: 10 mph from Northwest

Location: Lakeland Regional

Current Time: Oct 4, 2015 at 5:54:25 PM

Latest Report: Oct 4, 2015 at 4:50 PM

Visibility: 10 mi

Pressure: 29.68 "Hg

Humidity: 89%

Dew point: 70 °F

Location of LakelandLocation

Historic Weather in Lakeland — Graph


Lakeland temperature yesterday

Maximum temperature yesterday: 81 °F (at 12:54 PM)
Minimum temperature yesterday: 66 °F (at 10:55 PM)
Average temperature yesterday: 73 °F

Past Weeks' High & Low Weather Summary

High90 °F (Sep 20, 2:55 PM)100% (Sep 20, 7:50 AM)29.99 "Hg (Sep 20, 7:50 AM)
Low63 °F (Oct 4, 7:50 AM)41% (Sep 22, 3:52 PM)29.52 "Hg (Oct 2, 4:50 PM)
Average77 °F85%29.85 "Hg
* Reported Sep 19 4:50 PM — Oct 4 4:50 PM, Lakeland, Weather by CustomWeather, © 2015

Note: Actual official high and low records may vary slightly from our data, if they occured in-between our weather recording intervals... More about our weather records


Lakeland weather history for previous 24 hours

Time TempWeatherWind HumidityBarometerVisibility
4:50 PM
Sun, Oct 4
73 °FBroken clouds.10 mph89%29.68 "Hg10 mi
3:50 PM72 °FRain. Overcast.15 mph88%29.69 "Hg3 mi
2:50 PM72 °FBroken clouds.6 mph88%29.69 "Hg10 mi
1:50 PM75 °FRain. Broken clouds.7 mph74%29.70 "Hg3 mi
12:50 PM73 °FPartly sunny.No wind78%29.72 "Hg10 mi
11:50 AM72 °FOvercast.No wind83%29.73 "Hg10 mi
10:50 AM72 °FPartly sunny.No wind83%29.73 "Hg10 mi
9:45 AM66 °FMostly cloudy.No wind94%29.74 "Hg10 mi
8:50 AM70 °FBroken clouds.No wind83%29.71 "Hg10 mi
7:50 AM63 °FPassing clouds.No wind100%29.70 "Hg10 mi
6:50 AM64 °FClear.No wind94%29.70 "Hg10 mi
5:50 AM66 °FPassing clouds.No wind88%29.70 "Hg10 mi
5:35 AM64 °FPassing clouds.No wind94%29.69 "Hg10 mi
5:15 AM66 °FMostly cloudy.No wind88%29.69 "Hg10 mi
4:55 AM66 °FOvercast.No wind88%29.69 "Hg10 mi
4:35 AM66 °FOvercast.No wind88%29.69 "Hg10 mi
4:15 AM64 °FPassing clouds.No wind94%29.69 "Hg10 mi
3:55 AM64 °FPassing clouds.No wind94%29.69 "Hg10 mi
3:35 AM66 °FPartly cloudy.3 mph88%29.69 "Hg10 mi
3:15 AM66 °FMostly cloudy.No wind88%29.69 "Hg10 mi
2:55 AM64 °FPassing clouds.No wind94%29.69 "Hg10 mi
2:35 AM64 °FClear.No wind94%29.69 "Hg10 mi
2:15 AM64 °FClear.No wind94%29.70 "Hg10 mi
1:55 AM66 °FClear.No wind88%29.69 "Hg10 mi
1:35 AM66 °FClear.No wind88%29.69 "Hg10 mi
1:15 AM66 °FClear.No wind94%29.69 "Hg10 mi
11:35 PM
Sat, Oct 3
66 °FClear.No wind94%29.69 "Hg10 mi
10:55 PM66 °FClear.No wind94%29.68 "Hg10 mi
10:35 PM68 °FClear.No wind88%29.68 "Hg10 mi
10:15 PM68 °FClear.No wind88%29.68 "Hg10 mi
9:50 PM70 °FClear.No wind88%29.67 "Hg10 mi
8:50 PM70 °FClear.5 mph88%29.66 "Hg10 mi
7:50 PM72 °FSunny.7 mph78%29.62 "Hg10 mi
6:50 PM75 °FScattered clouds.8 mph69%29.62 "Hg10 mi
5:50 PM75 °FScattered clouds.12 mph69%29.62 "Hg10 mi
Weather by CustomWeather, © 2015

See weather overviewHow to use our weather pages